Zurück zum Katalog

YAOGAN-30 R

AktivMilitärVLEO
NORAD 45460·PAYLOAD·🇨🇳 China

Gestartet Mar 24, 2020 von Xichang Satellite Launch Center

Loading…

Nächste Überflüge (nächste 24 Stunden)

TLE

AktuellSource: Space-Track

Epoche: Sep 14, 2026, 18:47 UTC

1 45460U 20021A   26257.78304405  .00001931  00000-0  14252-3 0  9998
2 45460  34.9959  24.6554 0002933  94.1933 265.9111 15.03073658354041

Verfolge YAOGAN-30 R in Echtzeit mit AllMySat

Download on the App Store